This is the latest recevied weather packets stored in our database for station/object N0NAI-13. If no packets are shown the sender has not sent any weather packets the latest 10 day(s).
| Time | Temp. | Humidity | Pressure | Rain* | Wind** | Luminosity | Snow |
|---|---|---|---|---|---|---|---|
| 1777910717 | 21.67° C | 47% | 1000.9 hPa | 0 mm | - | - | - |
| 1777910126 | 21.11° C | 47% | 1000.7 hPa | 0 mm | - | - | - |
| 1777909529 | 21.11° C | 47% | 1000.8 hPa | 0 mm | - | - | - |
| 1777908932 | 21.11° C | 46% | 1000.9 hPa | 0 mm | - | - | - |
| 1777908317 | 20.56° C | 46% | 1000.9 hPa | 0 mm | - | - | - |
| 1777907720 | 21.11° C | 44% | 1000.9 hPa | 0 mm | - | - | - |
| 1777907123 | 21.11° C | 43% | 1000.6 hPa | 0 mm | - | - | - |
| 1777906526 | 21.11° C | 44% | 1000.5 hPa | 0 mm | - | - | - |
| 1777905929 | 20.56° C | 45% | 1000.5 hPa | 0 mm | - | - | - |
| 1777905331 | 20° C | 46% | 1000.4 hPa | 0 mm | - | - | - |
| 1777904716 | 20° C | 47% | 1000.6 hPa | 0 mm | - | - | - |
| 1777904119 | 20° C | 47% | 1000.2 hPa | 0 mm | - | - | - |
| 1777903522 | 19.44° C | 49% | 1000.2 hPa | 0 mm | - | - | - |
| 1777902925 | 18.89° C | 50% | 1000.3 hPa | 0 mm | - | - | - |
| 1777902328 | 17.78° C | 51% | 1000.3 hPa | 0 mm | - | - | - |
| 1777901731 | 17.78° C | 50% | 1000.3 hPa | 0 mm | - | - | - |
| 1777901115 | 17.22° C | 52% | 1000.3 hPa | 0 mm | - | - | - |
| 1777900518 | 16.67° C | 52% | 1000.6 hPa | 0 mm | - | - | - |
| 1777899921 | 15.56° C | 53% | 1000.6 hPa | 0 mm | - | - | - |
| 1777899318 | 15.56° C | 53% | 1000.9 hPa | 0 mm | - | - | - |
| 1777898727 | 15° C | 54% | 1000.9 hPa | 0 mm | - | - | - |
| 1777898130 | 13.89° C | 56% | 1000.9 hPa | 0 mm | - | - | - |
| 1777897533 | 13.89° C | 57% | 1000.9 hPa | 0 mm | - | - | - |
| 1777896918 | 13.33° C | 56% | 1000.9 hPa | 0 mm | - | - | - |
| 1777896321 | 13.33° C | 57% | 1001.1 hPa | 0 mm | - | - | - |
* Rain latest hour (hover to see other rain measurements)
** Current wind speed in m/s (hover to see current wind gust speed)